Probability
0 1 1 2 3 2 4 6 8 9 11 12 12 10 6 2 3 3 3 2 1 0 1 1 1 1 0 0 0 0 0 0 0 0 0 0 0 0 0 0 0 0 0
2 2 2 2 3 3 4 7 8 9 11 13 13 11 7 4 3 4 3 2 0 0 1 1 1 1 0 0 0 0 0 0 0 0 0 0 0 0 0 0 0 0 0
3 3 2 3 3 4 5 7 8 9 10 13 14 12 8 6 5 5 4 2 1 0 0 0 0 1 1 0 0 0 0 0 0 0 0 0 0 0 0 0 0 0 0
3 4 4 3 4 5 6 7 7 7 9 12 14 13 10 9 8 7 5 4 2 1 0 0 0 1 1 1 0 0 0 0 0 0 0 0 0 0 0 0 0 0 0
2 3 4 4 5 6 7 7 6 6 8 11 13 13 12 11 10 7 5 4 3 2 1 0 0 1 2 2 1 0 0 0 0 0 0 0 0 0 0 0 0 0 0
1 1 2 3 5 7 8 9 8 8 8 10 12 12 11 10 8 5 3 4 4 3 1 0 1 1 1 2 1 0 0 0 0 0 0 0 0 0 0 0 0 0 0
0 0 0 2 5 8 10 11 11 10 9 9 9 8 8 8 7 4 3 4 4 3 1 1 1 1 0 1 1 1 0 0 0 0 0 0 0 0 0 0 0 0 0
0 0 1 2 5 7 10 11 12 11 9 7 7 6 6 8 8 6 5 4 3 2 1 1 2 1 0 0 1 1 1 0 0 0 0 0 0 0 0 0 0 0 0
1 1 1 2 3 5 7 8 10 10 9 7 6 6 6 8 8 7 6 5 4 3 2 3 3 2 1 1 0 1 1 0 0 0 0 0 0 0 0 0 0 0 0
1 1 1 1 1 2 5 6 8 9 8 7 6 6 6 7 7 7 6 6 4 3 3 3 3 3 2 1 0 0 0 0 0 0 0 0 0 0 0 0 0 0 0
1 0 0 0 0 1 3 5 6 7 7 6 6 6 6 7 7 6 6 5 3 3 3 3 3 3 3 1 0 0 0 0 0 0 0 0 0 0 0 0 0 0 0
0 0 0 0 0 1 2 3 4 5 5 5 5 5 6 8 7 6 5 3 2 2 3 3 3 3 2 1 0 0 0 0 0 0 0 0 0 0 0 0 0 0 0
0 0 0 0 0 0 1 2 3 2 3 4 4 5 6 7 6 5 3 2 1 1 1 2 2 2 2 1 0 0 0 0 0 0 0 0 0 0 0 0 0 0 0
0 0 0 0 0 0 0 1 2 1 2 4 5 5 5 4 4 3 2 1 0 0 0 1 1 1 1 0 0 0 0 0 0 0 0 0 0 0 1 1 0 0 0
0 0 0 0 0 0 0 1 2 2 2 4 6 6 5 4 4 3 2 1 0 0 0 0 0 0 0 0 0 0 0 0 0 0 0 0 0 0 1 1 0 0 0
0 0 0 0 0 0 0 0 1 2 3 4 5 5 4 4 4 4 2 1 0 0 0 0 0 0 0 0 0 0 0 0 0 0 0 0 0 0 1 1 0 0 0
0 0 0 0 0 0 0 0 0 1 2 3 3 4 3 4 4 3 2 0 0 0 0 0 0 0 0 0 0 0 0 0 0 0 0 0 0 0 0 0 0 0 0
0 0 0 0 0 0 0 0 0 0 1 1 1 3 3 4 4 4 2 1 1 1 1 0 0 0 0 0 0 0 0 0 0 0 0 0 0 0 0 0 0 0 0
0 0 0 0 0 0 0 0 0 0 0 0 1 2 4 5 5 4 3 3 2 2 2 1 1 1 1 0 0 0 0 0 0 0 0 0 0 0 0 0 0 0 0
0 0 0 0 0 0 0 0 0 0 0 0 0 1 3 5 5 4 3 3 3 2 2 2 2 2 1 0 0 0 0 0 0 0 0 0 0 0 0 0 0 0 0
0 0 0 0 0 0 0 0 0 0 0 1 1 1 3 4 5 4 3 3 2 1 1 1 1 1 0 0 0 0 0 0 0 0 0 0 0 0 0 0 0 0 0
0 0 0 0 0 0 0 0 0 0 1 2 2 3 3 4 5 4 3 3 2 1 1 0 0 0 0 0 0 0 0 0 0 0 0 0 0 0 0 0 0 0 0
0 0 0 0 0 0 0 0 0 0 1 2 3 3 3 4 4 4 3 3 3 3 2 1 0 0 0 0 0 0 0 0 0 0 0 0 0 0 0 0 0 0 0
0 0 0 0 0 0 0 0 0 0 0 1 1 2 2 3 3 3 2 2 2 2 2 1 0 0 0 0 0 0 0 0 0 0 0 0 0 0 0 0 0 0 0
0 0 0 0 0 0 0 0 0 0 0 0 0 1 1 1 1 1 1 1 1 1 1 0 0 0 0 0 0 0 0 0 0 0 0 0 0 0 0 0 0 0 0
0 0 0 0 0 0 0 0 0 0 0 0 0 0 0 0 0 0 0 0 0 0 0 0 0 0 0 0 0 0 0 0 0 0 0 0 0 0 0 0 0 0 0
Wind_Speed
6 5 5 4 3 4 4 5 4 3 3 2 2 2 1 1 2 2 2 2 2 2 2 2 2 2 1 1 2 2 1 1 1 2 2 1 1 2 1 1 2 2 2
6 6 6 5 4 3 3 4 4 3 3 2 1 1 1 1 2 2 2 2 2 2 1 2 2 1 1 2 2 2 1 1 1 1 1 1 2 2 1 1 1 1 1
5 5 5 5 4 3 3 3 3 4 3 3 2 1 1 1 2 1 1 1 2 2 2 1 1 1 1 1 1 1 1 0 1 1 1 1 0 1 1 0 1 1 1
4 4 4 5 4 3 3 3 3 3 2 3 2 2 1 1 0 1 1 1 1 1 2 2 1 1 1 1 1 1 1 1 0 1 1 1 2 1 1 2 1 1 1
3 3 3 4 4 3 3 2 2 3 2 2 3 2 1 0 1 1 1 1 1 1 2 1 1 1 1 1 1 1 1 1 0 0 1 1 0 0 1 1 1 1 1
3 3 3 3 3 4 3 2 2 2 2 2 2 2 1 1 1 1 1 0 0 0 0 1 1 1 1 1 1 1 0 0 0 0 0 0 0 0 0 1 1 1 2
3 4 3 3 3 3 3 3 2 2 2 1 1 1 1 1 1 1 0 0 0 0 0 1 1 1 1 1 1 1 0 0 0 0 0 0 1 1 0 0 1 1 1
3 3 3 3 3 3 3 3 3 2 1 1 1 1 1 1 1 1 1 1 1 1 0 1 1 0 1 1 1 0 0 0 1 1 1 1 1 1 0 1 1 1 1
3 3 3 2 3 2 2 2 2 2 1 0 1 0 0 1 1 1 0 1 0 0 0 1 1 1 1 1 1 1 1 0 0 1 1 0 1 1 1 0 1 2 1
3 3 3 2 2 2 2 2 2 2 1 0 1 1 1 1 0 1 0 0 0 0 0 0 0 0 1 0 1 1 1 0 1 1 1 1 1 1 1 1 1 1 2
2 2 2 2 2 1 2 1 1 1 1 1 1 1 1 1 1 1 1 1 1 0 1 1 1 0 0 0 1 0 1 1 1 1 1 1 1 0 0 1 1 1 1
3 2 2 2 1 1 2 2 1 0 1 1 1 1 1 1 1 1 1 1 1 1 1 1 1 0 0 0 1 1 1 1 2 2 1 1 1 1 1 1 1 2 2
2 2 2 1 1 1 2 2 1 1 1 0 1 1 2 1 1 1 2 2 1 1 1 1 1 1 1 1 1 1 2 2 2 2 2 2 1 1 1 1 1 2 2
2 2 1 1 1 2 1 1 1 1 1 1 1 1 2 2 1 1 2 2 1 1 2 1 1 2 2 1 1 1 2 3 3 2 2 2 2 2 2 2 2 2 2
2 2 1 1 1 1 1 1 1 1 1 1 2 2 2 1 1 1 1 1 1 2 2 2 2 2 1 1 1 1 2 2 3 3 3 2 2 2 2 2 2 2 1
1 1 1 1 1 1 1 1 1 1 1 1 2 2 2 2 1 1 1 1 1 2 2 2 2 2 2 1 2 3 2 3 3 3 3 3 3 3 3 4 3 3 2
2 2 2 2 1 2 2 2 2 2 2 2 2 2 2 2 2 2 1 1 2 2 2 2 2 2 2 2 2 4 3 4 4 4 3 4 3 3 3 3 4 4 5
2 3 3 3 3 3 3 3 2 2 2 2 3 3 2 2 2 2 2 2 2 2 2 2 2 2 2 2 2 4 4 4 4 4 4 4 3 3 3 3 3 3 3
3 3 3 3 3 2 2 3 3 3 3 3 3 3 2 2 2 2 2 2 2 2 2 2 2 2 2 2 2 3 3 3 4 4 3 3 3 3 3 3 3 3 3
3 3 3 3 3 3 2 2 3 3 3 3 3 3 3 2 2 3 3 2 2 3 2 2 2 2 2 3 3 3 2 3 3 3 2 3 3 3 3 3 3 4 4
3 3 3 3 3 3 3 2 2 3 3 3 3 3 3 3 3 3 2 2 3 3 2 2 2 2 2 3 3 3 2 2 3 2 1 1 3 4 4 4 4 5 4
2 2 2 3 3 3 3 3 3 3 3 3 3 3 3 3 3 2 2 3 3 3 3 2 2 2 2 2 3 3 4 4 2 3 2 2 3 5 6 4 5 5 4
2 2 2 3 3 3 3 3 3 3 3 3 3 3 3 3 3 2 2 2 2 2 3 2 2 2 1 2 3 3 4 5 3 2 4 4 5 5 5 5 6 5 3
2 2 3 3 3 4 4 3 3 4 4 3 3 3 3 3 3 2 2 2 2 3 3 3 3 2 1 1 1 1 2 3 2 2 3 5 5 4 5 5 4 3 3
2 2 2 3 3 4 3 4 4 4 4 4 3 3 2 2 2 2 2 3 3 3 3 3 3 3 3 3 3 2 2 2 3 3 2 2 2 2 2 2 2 2 2
2 2 2 3 3 3 3 3 4 5 5 4 4 2 2 2 2 2 3 4 4 4 5 5 5 4 4 5 4 4 5 5 5 3 2 2 2 3 3 3 3 3 3
Wind_Direction
146 135 127 120 115 114 117 125 129 116 107 92 79 88 70 73 80 79 76 55 48 53 69 62 53 55 59 63 69 58 32 32 42 62 38 2 48 83 85 72 76 65 79
144 132 127 122 112 109 114 117 114 105 103 99 92 108 111 84 89 68 59 48 46 41 65 79 79 65 65 57 59 69 45 1 37 87 87 29 9 360 98 90 92 86 79
134 136 133 127 121 113 110 112 106 106 112 114 98 77 70 58 63 66 63 43 48 36 29 56 87 105 98 87 82 98 82 16 352 42 96 111 157 318 346 103 110 92 78
109 121 138 135 129 121 118 111 108 101 107 118 111 108 105 96 112 109 99 64 57 43 46 29 50 67 86 104 104 85 86 101 315 337 12 114 134 131 330 321 18 101 131
117 122 123 131 132 124 112 110 113 111 111 121 128 134 127 115 85 84 88 91 71 63 61 30 10 55 92 107 83 70 64 113 162 346 349 356 28 131 150 268 317 331 302
122 120 119 123 122 121 122 124 121 113 114 119 131 144 144 109 89 73 97 102 106 85 84 62 17 34 67 91 97 102 85 19 346 20 48 81 132 290 200 217 261 274 276
122 122 121 121 121 125 140 139 124 108 105 108 113 145 170 162 159 155 144 155 136 354 271 78 49 29 33 71 96 120 170 165 238 231 291 284 254 242 235 162 260 294 281
105 119 121 123 126 127 143 144 139 132 122 141 196 199 170 151 179 165 157 186 201 205 209 125 119 81 61 81 99 150 249 224 224 242 240 282 296 319 304 160 145 318 302
89 96 110 115 121 125 136 150 152 148 148 224 258 167 266 182 168 183 175 192 199 215 199 126 129 146 103 128 149 166 230 234 229 245 222 243 277 293 300 230 165 167 251
87 89 94 95 97 123 156 170 170 153 140 189 289 314 250 268 203 138 164 302 261 265 309 207 113 100 109 88 142 180 238 228 223 214 207 233 260 282 282 270 262 198 191
97 79 76 82 77 72 90 117 142 150 165 212 263 304 292 241 244 187 198 237 256 270 277 282 225 192 123 123 107 192 273 261 267 261 228 239 235 265 287 292 280 264 219
87 83 79 69 83 99 91 76 54 63 183 238 286 283 290 244 244 249 246 221 231 248 258 259 259 251 230 211 164 242 252 257 258 265 257 255 266 231 240 253 271 271 251
87 76 83 72 78 94 90 91 67 27 17 273 273 292 300 279 256 247 254 245 221 230 264 276 272 267 241 230 214 246 263 262 258 249 241 237 238 256 259 240 255 273 279
97 75 51 62 78 81 86 89 70 39 7 345 305 267 274 270 269 258 253 257 235 225 242 245 257 271 276 245 218 238 268 264 265 259 246 222 205 217 235 239 243 262 288
81 68 46 55 72 58 62 69 58 39 347 342 331 321 306 280 256 263 267 267 262 270 260 252 247 251 256 265 308 272 281 269 269 269 259 245 237 233 243 255 248 242 251
41 34 36 54 74 52 19 29 17 354 344 327 316 328 328 321 305 285 275 277 265 265 270 271 260 261 277 287 294 293 275 271 264 268 267 253 239 246 258 267 263 237 226
17 4 2 20 25 22 24 12 356 357 346 329 328 331 329 328 328 315 300 274 272 276 269 265 257 255 259 260 275 285 272 269 263 256 260 270 257 242 231 255 268 266 249
6 6 3 8 12 21 14 360 359 348 336 341 338 338 338 326 328 316 288 273 275 272 269 268 256 248 252 264 287 288 263 262 266 259 251 252 248 232 226 233 246 256 258
10 7 5 359 356 3 3 359 346 343 352 342 333 332 332 326 321 308 296 280 272 277 273 267 257 245 243 249 268 283 264 265 269 266 266 263 262 246 245 238 245 256 269
24 16 1 351 352 353 358 353 332 338 339 329 328 325 323 315 304 297 291 295 284 268 262 271 267 256 258 263 263 280 267 273 277 272 267 288 293 280 264 243 244 248 254
17 8 1 352 352 352 341 329 334 335 330 331 329 321 316 304 297 297 298 297 292 280 264 264 272 269 263 256 247 272 274 273 280 280 278 279 306 300 282 272 249 246 248
12 2 357 351 346 340 334 328 338 328 325 323 319 312 305 303 309 300 296 292 288 281 271 258 262 257 255 249 244 258 282 306 293 290 280 275 301 299 290 277 268 268 260
0 357 356 344 335 338 340 332 331 327 319 314 308 300 301 302 301 292 290 294 295 286 280 264 254 255 244 246 250 261 287 296 294 290 296 297 297 298 288 280 277 268 249
357 354 344 339 339 343 344 335 325 317 312 305 298 297 299 303 304 298 284 280 279 280 280 276 270 269 264 257 240 252 272 272 284 291 298 296 289 280 274 279 267 248 236
336 342 331 328 327 332 331 332 326 317 309 305 303 302 297 288 292 301 293 280 269 266 272 271 267 265 261 262 274 275 279 278 272 287 291 291 285 276 271 269 260 249 237
331 328 324 327 325 325 325 331 325 319 316 313 310 304 299 292 280 279 300 300 278 289 284 281 276 276 268 265 265 271 279 281 279 284 264 268 270 270 267 262 259 255 242